Weather History for KCMX - November, 2011

Change the Weather History Date:

Sunday, November 20, 2011

  Actual Average Record
Temperature  
Mean Temperature 20 °F -  
Max Temperature 25 °F 34 °F 57 °F (1982)
Min Temperature 15 °F 24 °F 8 °F (2014)
Degree Days  
Heating Degree Days 45    
Moisture  
Dew Point 16 °F    
Average Humidity 80    
Maximum Humidity 100    
Minimum Humidity 64    
Precipitation  
Precipitation 0.00 in - - ()
Sea Level Pressure  
Sea Level Pressure 30.27 in    
Wind  
Wind Speed 8 mph (NW)    
Max Wind Speed 16 mph    
Max Gust Speed 23 mph    
Visibility 7 miles    
Events Snow    
Averages and records for this station are not official NWS values.
T = Trace of Precipitation, MM = Missing Value Source: NWS Daily Summary

Daily Weather History Graph

Daily Weather History Graph

Search for Another Location

Airport or City:

Trip Planner

Search our weather history database for the weather conditions in past years. The results will help you decide how hot, cold, wet, or windy it might be!

Date:

Astronomy

Nov. 20, 2011 Rise Set
Actual Time 8:04 AM EST 5:13 PM EST
Civil Twilight 7:30 AM EST 5:47 PM EST
Nautical Twilight 6:53 AM EST 6:25 PM EST
Astronomical Twilight 6:17 AM EST 7:01 PM EST
Moon 2:13 AM EST (11/20) 2:19 PM EST (11/20)
Length of Visible Light 10h 16m
Length of Day
9h 09m
Waning Crescent, 27% of the Moon is Illuminated
Nov 20
Waning Crescent
Nov 25
New
Dec 2
First Quarter
Dec 10
Full
Dec 17
Last Quarter

Hourly Weather History & Observations

Time (EST) Temp. Windchill Dew Point Humidity Pressure Visibility Wind Dir Wind Speed Gust Speed Precip Events Conditions
12:53 AM 25.0 °F 12.2 °F 18.0 °F 75% 30.04 in 10.0 mi North 16.1 mph 23.0 mph N/A   Overcast
1:53 AM 24.1 °F 12.5 °F 18.0 °F 77% 30.08 in 10.0 mi North 12.7 mph 23.0 mph N/A   Overcast
2:53 AM 24.1 °F 12.0 °F 19.0 °F 81% 30.12 in 10.0 mi NNW 13.8 mph - N/A   Overcast
3:07 AM 24.8 °F 13.4 °F 19.4 °F 80% 30.08 in 10.0 mi North 12.7 mph - N/A   Overcast
3:45 AM 23.0 °F 11.7 °F 17.6 °F 80% 30.10 in 10.0 mi NNW 11.5 mph 19.6 mph N/A   Overcast
3:53 AM 23.0 °F 13.1 °F 18.0 °F 81% 30.15 in 10.0 mi North 9.2 mph - N/A   Overcast
4:53 AM 21.9 °F 12.5 °F 16.0 °F 78% 30.16 in 10.0 mi North 8.1 mph - N/A   Overcast
5:53 AM 21.0 °F 11.4 °F 16.0 °F 81% 30.21 in 4.0 mi North 8.1 mph - 0.00 in Snow Light Snow
6:53 AM 19.9 °F 11.1 °F 15.1 °F 81% 30.22 in 4.0 mi North 6.9 mph - 0.00 in Snow Light Snow
7:41 AM 19.4 °F 14.3 °F 14.0 °F 80% 30.19 in 2.5 mi North 3.5 mph - N/A Snow Light Snow
7:53 AM 19.9 °F 14.9 °F 15.1 °F 81% 30.25 in 2.0 mi North 3.5 mph - 0.00 in Snow Light Snow
8:15 AM 19.4 °F 12.8 °F 15.8 °F 86% 30.22 in 1.2 mi NW 4.6 mph - 0.00 in Snow Light Snow
8:49 AM 19.4 °F 10.4 °F 15.8 °F 86% 30.23 in 3.0 mi North 6.9 mph - 0.00 in Snow Light Snow
8:53 AM 19.9 °F 13.4 °F 15.1 °F 81% 30.30 in 4.0 mi North 4.6 mph - 0.00 in Snow Light Snow
9:09 AM 19.4 °F 12.8 °F 15.8 °F 86% 30.24 in 1.8 mi North 4.6 mph - 0.00 in Snow Light Snow
9:32 AM 19.4 °F 12.8 °F 15.8 °F 86% 30.26 in 2.0 mi NW 4.6 mph - 0.00 in Snow Light Snow
9:42 AM 19.4 °F 11.5 °F 15.8 °F 86% 30.27 in 1.5 mi NW 5.8 mph - 0.00 in Snow Light Snow
9:53 AM 19.9 °F 10.1 °F 16.0 °F 85% 30.34 in 1.2 mi NW 8.1 mph - 0.00 in Snow Light Snow
10:53 AM 19.9 °F 12.1 °F 16.0 °F 85% 30.35 in 1.2 mi NW 5.8 mph - 0.00 in Snow Light Snow
11:21 AM 21.2 °F 12.6 °F 15.8 °F 80% 30.30 in 3.0 mi NW 6.9 mph - 0.00 in Snow Light Snow
11:53 AM 21.9 °F 15.7 °F 16.0 °F 78% 30.35 in 2.5 mi North 4.6 mph - 0.00 in Snow Light Snow
12:02 PM 21.2 °F 14.9 °F 15.8 °F 80% 30.30 in 5.0 mi NNW 4.6 mph - 0.00 in   Haze
12:09 PM 21.2 °F 13.6 °F 14.0 °F 74% 30.30 in 9.0 mi NNW 5.8 mph - 0.00 in   Overcast
12:31 PM 24.8 °F - 14.0 °F 64% 30.30 in 10.0 mi Calm Calm - 0.00 in   Overcast
12:53 PM 21.9 °F 15.7 °F 14.0 °F 72% 30.36 in 10.0 mi NW 4.6 mph - 0.00 in   Overcast
1:53 PM 21.9 °F - 14.0 °F 72% 30.36 in 10.0 mi Calm Calm - 0.00 in   Overcast
2:06 PM 21.2 °F 16.4 °F 12.2 °F 68% 30.31 in 10.0 mi West 3.5 mph - N/A   Overcast
2:53 PM 21.9 °F 15.7 °F 15.1 °F 75% 30.37 in 8.0 mi West 4.6 mph - N/A   Overcast
3:21 PM 21.2 °F - 15.8 °F 80% 30.31 in 10.0 mi Calm Calm - N/A   Overcast
3:53 PM 24.1 °F - 15.1 °F 69% 30.36 in 9.0 mi Calm Calm - N/A   Overcast
4:53 PM 23.0 °F 18.4 °F 15.1 °F 72% 30.38 in 10.0 mi SW 3.5 mph - N/A   Overcast
5:00 PM 23.0 °F 18.4 °F 15.8 °F 74% 30.32 in 10.0 mi SW 3.5 mph - N/A   Overcast
5:34 PM 21.2 °F - 17.6 °F 86% 30.32 in 4.0 mi Calm Calm - 0.00 in Snow Light Snow
5:53 PM 21.9 °F - 17.1 °F 82% 30.38 in 4.0 mi Calm Calm - 0.00 in Snow Light Snow
6:20 PM 21.2 °F 16.4 °F 17.6 °F 86% 30.32 in 7.0 mi SSW 3.5 mph - 0.00 in Snow Light Snow
6:53 PM 21.9 °F 17.2 °F 17.1 °F 82% 30.38 in 10.0 mi South 3.5 mph - 0.00 in   Overcast
7:53 PM 19.9 °F - 16.0 °F 85% 30.38 in 10.0 mi Calm Calm - N/A   Clear
8:53 PM 15.8 °F - 15.8 °F 100% 30.31 in 10.0 mi Calm Calm - N/A   Overcast
9:53 PM 18.0 °F 12.7 °F 15.1 °F 88% 30.37 in 10.0 mi SE 3.5 mph - N/A   Overcast
10:12 PM 19.4 °F 12.8 °F 15.8 °F 86% 30.30 in 10.0 mi South 4.6 mph - N/A   Overcast
10:53 PM 21.2 °F 13.6 °F 17.6 °F 86% 30.30 in 10.0 mi South 5.8 mph - N/A   Overcast
11:53 PM 21.9 °F 12.5 °F 17.1 °F 82% 30.35 in 10.0 mi South 8.1 mph - N/A   Overcast